Wind_Speed
26 27 27 30 32 30 25 23 24 25 25 23 21 20 18 16 11 8 6 5 7 5 0 3 5 12 13 18 21 26 26 15 15 7 11 15 10 14 19 11 10 11 9 10 14
27 27 28 28 32 34 32 28 26 24 26 24 23 22 20 19 15 10 7 6 5 7 2 5 7 15 18 18 27 24 22 15 11 5 8 5 15 23 24 7 5 15 13 10 14
26 27 29 30 30 32 35 34 27 26 27 25 24 25 24 22 19 14 12 8 5 6 5 5 10 16 19 21 26 27 13 9 23 21 7 15 16 12 14 14 11 15 16 11 14
24 25 29 31 31 32 33 34 31 28 26 28 26 25 27 25 19 18 15 11 8 7 7 5 11 14 20 21 24 10 14 11 22 25 17 8 13 22 19 13 13 16 16 13 13
24 25 27 30 31 31 32 32 32 30 26 28 28 25 27 28 22 20 18 13 10 9 8 7 12 15 18 20 19 12 13 21 17 11 17 12 15 16 12 14 13 14 13 14 15
24 24 23 26 29 30 31 32 31 30 30 26 27 28 27 29 22 22 20 17 14 11 9 10 14 16 19 22 15 6 13 14 12 7 4 7 9 14 12 15 16 12 12 14 14
23 21 19 19 22 26 29 30 31 31 30 28 26 26 28 28 26 25 21 19 17 14 10 12 17 19 18 21 21 18 16 14 9 6 2 10 20 16 6 13 15 11 10 13 13
23 22 19 17 16 19 24 28 29 31 31 30 28 27 26 23 23 25 23 22 20 17 12 13 15 16 19 22 20 17 15 11 7 1 6 6 9 21 18 21 15 8 10 12 15
23 23 20 19 16 17 17 22 26 28 32 31 30 29 28 22 19 22 25 25 24 20 15 14 16 15 18 18 20 20 11 9 13 21 7 14 13 25 26 29 16 11 10 10 12
25 23 20 19 17 17 17 16 23 27 29 32 32 30 33 26 22 21 22 26 27 24 18 16 17 17 19 17 16 13 13 8 16 25 10 7 14 22 27 19 11 17 13 7 9
25 24 21 19 17 15 16 19 18 23 27 30 31 32 31 29 24 23 22 27 29 26 22 20 19 18 18 14 13 1 2 14 20 26 14 15 12 24 27 8 13 18 12 9 8
25 24 23 20 19 16 17 17 19 20 19 26 29 31 31 29 25 24 22 27 29 25 25 24 20 20 19 17 15 15 18 17 10 20 23 11 16 19 23 7 9 19 17 10 4
25 24 22 21 20 19 17 17 16 18 18 20 25 28 29 29 26 26 23 26 28 27 26 24 19 22 23 19 19 20 23 19 19 31 21 12 17 19 26 14 6 14 14 15 19
26 26 24 22 20 20 16 15 15 15 13 18 22 24 27 26 27 26 24 25 28 27 28 27 25 23 25 23 23 19 19 18 18 28 18 12 17 20 23 28 13 16 15 15 17
27 27 26 23 21 19 16 15 13 12 3 11 23 16 25 23 30 26 24 26 28 27 32 25 27 32 26 23 20 18 23 25 21 22 14 14 13 17 23 23 26 19 16 16 23
29 28 28 25 22 19 16 15 12 13 8 6 14 17 22 23 26 27 25 25 27 30 33 29 29 28 21 24 21 21 9 19 24 20 20 18 18 10 28 19 15 15 22 19 24
30 30 30 26 24 21 17 17 14 13 4 8 8 9 15 21 23 27 25 27 27 28 30 28 25 17 22 26 21 15 21 15 15 20 23 11 18 23 27 24 22 15 25 25 24
30 28 29 30 27 23 19 19 17 9 10 15 22 22 12 14 17 23 26 27 28 30 25 28 32 21 22 23 17 24 22 17 15 12 16 16 15 21 25 28 28 27 31 34 26
30 29 27 29 30 26 24 21 12 10 18 17 16 18 18 18 17 18 27 25 26 28 39 30 27 9 29 27 25 25 24 21 22 13 17 16 25 30 20 21 30 31 35 33 30
31 29 28 30 30 30 28 18 15 19 19 28 27 18 9 17 19 19 20 22 25 24 25 31 29 22 20 29 27 20 19 25 19 18 18 18 19 14 21 24 20 22 27 28 25
33 32 32 30 30 32 27 19 20 18 28 25 22 19 26 23 24 24 21 17 22 28 24 32 32 25 22 25 26 23 24 21 18 20 17 18 28 16 16 22 11 15 17 24 27
27 27 34 32 33 31 28 23 25 25 26 22 26 24 20 30 31 26 22 19 19 26 34 33 30 35 34 25 22 23 24 19 27 19 26 24 22 32 24 21 11 23 24 28 31
26 27 28 29 33 30 26 27 24 23 26 25 25 23 19 23 30 31 26 18 22 21 33 38 42 32 30 31 31 26 26 25 21 29 23 28 19 21 17 29 28 24 30 27 30
26 26 29 27 32 35 36 28 26 26 26 28 23 23 25 19 37 23 29 11 32 32 33 39 40 42 30 22 20 26 22 32 27 29 28 23 23 24 24 26 30 28 24 27 40
27 30 32 25 31 33 33 30 23 25 27 26 22 21 25 24 42 39 36 24 17 36 37 47 47 43 37 31 37 32 26 31 21 29 17 16 34 28 33 24 17 12 17 26 32
30 31 27 26 28 38 39 36 30 18 22 27 21 22 27 29 33 22 41 35 20 33 34 35 41 48 43 45 23 26 35 29 26 29 28 31 40 33 35 36 26 22 24 35 33
29 26 28 25 24 31 32 32 29 27 26 18 24 25 27 31 26 24 29 42 17 34 41 36 32 36 38 44 27 21 33 32 39 37 36 32 37 36 27 22 24 29 34 36 37
Wind_Direction
255 252 251 244 246 250 250 244 243 238 240 238 235 234 235 244 250 275 295 340 357 356 32 158 145 138 135 127 116 112 110 112 301 163 244 307 287 293 308 307 327 341 340 0 6
258 255 253 250 244 244 248 246 246 244 239 242 237 239 232 237 237 253 269 289 334 345 356 169 158 145 140 137 122 114 92 112 194 192 213 236 281 282 303 282 351 346 329 359 359
258 258 259 254 250 247 246 249 243 245 240 241 240 238 236 235 234 241 258 265 300 319 313 189 174 161 154 150 134 122 79 204 211 227 101 277 292 295 314 318 304 334 327 347 352
260 257 258 259 256 250 247 248 247 243 245 242 243 242 241 236 228 232 242 256 269 282 300 212 192 170 167 164 166 139 170 185 233 229 208 260 263 281 295 318 308 319 322 346 353
262 263 263 260 259 254 250 247 248 244 245 244 247 247 243 241 230 228 235 249 261 260 274 238 203 185 172 167 171 174 185 200 221 218 200 187 247 274 271 311 319 317 332 354 352
259 262 264 265 258 255 249 246 247 247 244 246 247 247 246 247 234 232 234 243 251 251 260 244 215 197 179 169 162 151 209 209 226 225 239 169 220 279 255 322 318 330 3 7 7
256 257 264 267 266 255 250 248 244 245 245 244 246 248 248 252 242 241 235 236 242 241 240 246 223 206 194 185 175 192 207 210 227 216 17 152 234 282 273 313 321 340 25 4 10
250 254 261 266 270 270 255 248 246 243 245 245 246 247 250 251 248 242 236 233 237 237 237 249 230 220 209 190 193 192 206 218 281 124 95 175 246 281 294 322 314 330 4 7 358
248 251 258 261 263 269 268 254 249 246 242 244 245 246 247 245 248 247 240 234 231 234 229 235 227 224 212 211 193 202 202 165 235 263 137 90 203 254 284 305 311 339 341 356 359
248 250 254 253 256 259 264 263 249 247 245 243 244 244 244 243 248 249 244 230 230 230 227 227 223 221 216 201 195 200 176 159 226 263 233 209 236 271 285 285 250 300 315 340 0
249 248 249 248 252 256 258 256 255 250 249 245 245 246 246 244 245 248 245 230 228 224 223 221 217 218 212 204 192 4 321 181 222 259 274 184 230 274 289 263 287 280 302 318 345
248 246 244 243 246 251 254 257 256 255 251 249 249 242 247 243 242 243 245 235 231 227 217 216 214 211 208 193 172 200 225 243 194 241 259 188 211 262 279 311 246 293 303 295 305
244 239 236 240 245 248 252 253 258 260 257 260 250 244 240 241 240 239 243 238 231 225 215 213 201 220 200 195 226 211 202 195 215 229 243 185 246 227 262 297 303 282 281 314 300
238 235 236 239 242 248 257 257 263 271 282 263 257 241 236 235 238 242 238 238 231 223 218 203 198 205 213 211 205 201 188 171 215 241 241 207 223 245 263 297 293 309 269 283 290
240 238 238 238 239 247 254 256 262 268 145 277 272 258 237 229 236 241 238 238 233 227 221 210 206 208 207 210 208 190 176 176 219 239 226 246 245 246 280 283 291 301 263 290 280
239 239 240 238 237 241 253 252 254 260 206 267 284 275 239 225 235 238 240 237 229 225 219 213 209 220 209 201 200 173 181 223 210 217 239 204 257 253 241 237 254 291 295 297 282
241 238 237 235 238 240 246 245 245 244 194 276 277 272 243 229 233 238 238 240 235 231 236 225 192 218 212 198 189 195 195 211 215 211 231 241 246 258 275 274 276 242 272 287 282
237 233 233 237 237 239 243 241 239 220 206 240 238 238 226 235 232 248 238 237 231 227 225 224 215 183 211 191 203 213 204 195 217 225 242 225 244 248 259 259 275 284 289 283 288
231 234 234 235 237 238 239 242 233 209 215 239 231 261 250 226 209 241 251 239 229 229 226 211 209 231 206 189 201 214 200 188 230 270 245 221 211 227 227 245 265 274 273 276 286
235 235 234 233 235 236 236 242 234 204 268 231 236 233 209 215 231 224 245 256 232 216 212 226 209 195 240 190 190 209 210 213 218 240 248 242 259 281 224 240 256 271 292 280 271
239 238 236 234 234 236 235 236 231 236 242 241 248 243 209 205 191 214 232 238 253 214 217 224 220 200 198 222 201 208 223 225 220 232 242 239 255 197 232 240 251 268 289 296 296
234 234 233 230 234 236 232 232 236 225 247 243 252 258 259 224 197 194 215 224 241 225 212 216 203 190 190 206 206 212 216 220 221 242 216 238 225 240 244 193 241 270 269 286 288
233 236 237 231 232 234 232 233 232 236 241 254 252 251 261 248 201 195 182 219 227 234 205 208 208 211 200 204 214 206 210 221 233 234 230 236 256 265 248 264 266 268 281 281 273
232 232 237 227 225 226 223 222 230 242 241 248 251 253 265 264 227 175 181 238 213 225 199 202 203 212 217 219 209 234 205 208 227 249 225 235 237 253 265 261 275 255 261 263 278
230 229 232 226 221 228 228 229 230 236 243 245 246 251 264 277 219 212 191 213 219 220 207 204 208 210 202 219 211 194 219 233 229 245 243 218 242 223 234 243 214 250 279 281 282
227 231 234 236 228 225 220 222 226 211 240 251 242 245 258 272 222 195 200 202 208 201 216 219 223 216 218 230 217 214 211 206 226 229 250 239 236 259 245 229 267 296 292 288 286
227 228 226 230 223 219 226 230 226 224 229 223 239 238 252 265 232 216 186 206 251 200 201 213 223 219 216 216 220 225 269 216 210 203 223 241 254 250 230 244 276 280 283 284 291
Height
5865 5866 5867 5869 5871 5872 5874 5876 5878 5879 5881 5883 5886 5888 5891 5893 5895 5896 5897 5897 5896 5896 5897 5898 5900 5902 5904 5905 5908 5909 5912 5916 5922 5918 5915 5915 5910 5905 5903 5902 5900 5898 5897 5894 5891
5860 5861 5862 5864 5866 5867 5869 5872 5874 5875 5877 5879 5882 5885 5887 5890 5893 5894 5896 5896 5896 5896 5897 5898 5899 5902 5903 5906 5906 5911 5911 5914 5924 5918 5915 5914 5911 5905 5902 5899 5899 5897 5897 5895 5893
5856 5856 5857 5859 5860 5862 5864 5866 5869 5871 5873 5876 5878 5881 5883 5886 5890 5891 5893 5894 5895 5895 5896 5897 5899 5901 5903 5905 5907 5906 5911 5920 5920 5917 5919 5912 5909 5905 5902 5900 5898 5898 5897 5896 5894
5851 5852 5852 5853 5854 5856 5858 5860 5863 5866 5869 5871 5874 5876 5879 5882 5889 5889 5891 5892 5893 5893 5895 5896 5898 5900 5901 5905 5906 5907 5911 5917 5915 5917 5917 5916 5911 5904 5901 5899 5900 5898 5896 5895 5895
5847 5848 5848 5847 5849 5851 5852 5855 5857 5861 5864 5867 5869 5872 5874 5877 5884 5885 5887 5889 5890 5891 5892 5895 5897 5898 5900 5902 5905 5908 5910 5911 5911 5913 5914 5914 5911 5907 5902 5900 5900 5899 5895 5894 5893
5843 5843 5843 5843 5843 5845 5847 5850 5852 5855 5859 5862 5865 5867 5869 5872 5880 5880 5883 5886 5887 5889 5889 5891 5895 5897 5898 5901 5904 5908 5909 5910 5911 5911 5910 5910 5911 5905 5902 5901 5900 5898 5895 5894 5892
5839 5839 5839 5839 5839 5840 5841 5844 5848 5850 5853 5857 5860 5862 5865 5869 5872 5876 5879 5882 5883 5885 5886 5888 5891 5894 5896 5897 5900 5905 5907 5908 5908 5909 5909 5907 5908 5903 5903 5903 5899 5896 5895 5894 5893
5834 5835 5835 5835 5836 5835 5836 5839 5842 5845 5848 5851 5855 5857 5860 5865 5868 5872 5875 5878 5879 5881 5882 5884 5887 5891 5894 5894 5897 5901 5903 5905 5906 5907 5908 5906 5908 5901 5900 5899 5899 5896 5894 5894 5892
5829 5830 5832 5832 5832 5832 5832 5833 5836 5839 5842 5846 5850 5852 5856 5860 5863 5866 5870 5873 5875 5877 5879 5881 5884 5888 5892 5893 5895 5897 5900 5903 5910 5906 5908 5907 5909 5901 5901 5899 5897 5895 5895 5894 5893
5824 5825 5828 5829 5829 5829 5829 5830 5830 5834 5837 5840 5844 5849 5850 5856 5859 5862 5865 5868 5870 5872 5876 5878 5881 5885 5888 5891 5894 5896 5898 5904 5909 5905 5907 5909 5904 5902 5902 5899 5896 5897 5895 5894 5893
5819 5821 5823 5824 5825 5826 5827 5827 5829 5830 5831 5834 5839 5842 5846 5849 5855 5858 5860 5862 5865 5868 5872 5874 5877 5882 5886 5889 5891 5895 5899 5903 5909 5905 5904 5906 5910 5903 5900 5899 5894 5898 5895 5893 5890
5813 5816 5819 5820 5822 5822 5823 5823 5823 5825 5828 5829 5832 5838 5840 5844 5849 5853 5856 5859 5861 5866 5867 5870 5874 5880 5883 5886 5888 5895 5901 5903 5904 5905 5903 5905 5909 5903 5898 5898 5898 5892 5891 5890 5891
5808 5811 5813 5816 5817 5818 5818 5820 5820 5821 5824 5825 5827 5831 5836 5839 5843 5848 5851 5853 5857 5861 5863 5867 5873 5877 5879 5882 5888 5890 5894 5899 5905 5900 5902 5902 5903 5904 5898 5896 5896 5896 5892 5887 5885
5802 5805 5808 5811 5814 5813 5815 5815 5816 5818 5820 5821 5821 5825 5829 5834 5839 5842 5846 5849 5852 5856 5859 5862 5867 5872 5875 5878 5881 5886 5890 5896 5901 5897 5898 5899 5901 5899 5896 5894 5894 5895 5893 5891 5886
5796 5799 5802 5805 5808 5809 5811 5812 5813 5815 5820 5820 5815 5823 5824 5832 5833 5839 5841 5843 5847 5852 5855 5859 5862 5865 5870 5875 5879 5885 5889 5890 5896 5896 5896 5898 5897 5897 5894 5890 5889 5888 5888 5888 5883
5790 5793 5796 5800 5803 5805 5806 5807 5810 5813 5817 5821 5817 5819 5821 5826 5829 5832 5836 5840 5843 5846 5848 5854 5859 5863 5868 5871 5877 5880 5885 5889 5890 5894 5893 5893 5894 5893 5891 5890 5885 5885 5884 5884 5882
5782 5786 5790 5794 5797 5800 5802 5804 5807 5809 5817 5820 5821 5817 5818 5822 5825 5826 5832 5835 5839 5843 5847 5853 5851 5859 5863 5867 5873 5877 5881 5885 5888 5889 5890 5892 5893 5892 5883 5887 5887 5887 5883 5879 5879
5775 5779 5784 5787 5791 5795 5797 5799 5802 5807 5813 5812 5814 5814 5817 5820 5822 5823 5826 5830 5834 5838 5843 5847 5851 5854 5859 5865 5872 5876 5878 5883 5884 5887 5889 5890 5891 5889 5882 5881 5883 5884 5880 5876 5877
5769 5773 5778 5781 5785 5789 5792 5794 5800 5803 5806 5806 5807 5810 5814 5817 5823 5824 5822 5826 5830 5834 5837 5842 5846 5853 5856 5861 5870 5871 5873 5879 5881 5882 5882 5884 5885 5876 5876 5876 5878 5879 5876 5875 5875
5762 5767 5772 5774 5778 5782 5786 5791 5794 5795 5797 5800 5804 5807 5811 5815 5819 5822 5823 5823 5826 5831 5834 5839 5842 5846 5853 5858 5862 5867 5872 5874 5875 5877 5875 5878 5878 5874 5871 5871 5873 5874 5871 5871 5871
5755 5760 5764 5768 5772 5775 5781 5786 5788 5792 5790 5795 5799 5801 5804 5805 5809 5815 5820 5824 5821 5827 5831 5835 5840 5847 5852 5853 5858 5864 5866 5869 5872 5874 5875 5874 5862 5863 5867 5867 5866 5867 5866 5863 5864
5747 5751 5755 5760 5766 5770 5775 5781 5783 5784 5784 5789 5791 5795 5800 5802 5801 5805 5814 5818 5822 5821 5826 5831 5838 5837 5839 5851 5855 5859 5863 5864 5866 5868 5868 5867 5866 5859 5864 5862 5864 5863 5863 5862 5862
5741 5745 5749 5754 5759 5764 5771 5774 5777 5779 5781 5782 5785 5789 5792 5796 5798 5801 5806 5813 5814 5816 5821 5826 5830 5836 5838 5841 5846 5850 5855 5859 5859 5861 5863 5865 5861 5854 5857 5858 5860 5862 5856 5856 5854
5736 5740 5741 5747 5752 5755 5759 5765 5770 5773 5776 5776 5780 5781 5784 5788 5794 5794 5800 5804 5807 5812 5814 5819 5823 5828 5835 5838 5845 5845 5849 5851 5853 5854 5856 5861 5858 5856 5854 5851 5850 5852 5854 5853 5844
5729 5731 5734 5741 5746 5751 5756 5761 5766 5768 5769 5772 5774 5775 5778 5779 5785 5786 5791 5791 5795 5804 5808 5810 5814 5821 5829 5830 5831 5829 5845 5849 5849 5849 5848 5855 5846 5844 5844 5843 5841 5843 5845 5844 5841
5720 5723 5729 5733 5738 5743 5746 5753 5760 5766 5767 5766 5770 5769 5770 5773 5779 5780 5785 5785 5784 5790 5801 5805 5809 5817 5822 5823 5827 5829 5834 5837 5845 5849 5848 5840 5838 5840 5836 5833 5835 5838 5839 5833 5836
5714 5721 5723 5727 5732 5737 5743 5750 5755 5759 5759 5760 5764 5763 5766 5769 5773 5774 5775 5780 5783 5785 5789 5795 5803 5809 5815 5823 5825 5828 5827 5829 5830 5829 5832 5831 5824 5831 5827 5828 5832 5833 5832 5829 5826